W8KJR Weather Reports


Display with metric or nautical units.
time (UTC)temp
F
wind
direction
speed
MPH
gust
MPH
rain 1hr
in
rain 24hr
in
rain mn
in
humidity
%
barometer
mb
20260503032758 38 288 0.0 0.0 0.00 0.00 0.00 85 1016.2
20260503031257 39 288 0.0 0.0 0.00 0.00 0.00 83 1016.4
20260503025757 39 288 0.0 0.0 0.00 0.00 0.00 77 1016.3
20260503024255 40 288 0.0 0.0 0.00 0.00 0.00 74 1016.5
20260503022750 40 288 0.0 0.0 0.00 0.00 0.00 74 1016.8
20260503021249 41 288 0.0 0.0 0.00 0.00 0.00 73 1016.7
20260503015747 41 288 0.0 0.0 0.00 0.00 0.00 73 1016.5
20260503014243 41 288 0.0 0.0 0.00 0.00 0.00 73 1016.3
20260503012741 42 288 0.0 0.0 0.00 0.00 0.00 68 1016.4
20260503011238 42 288 0.0 0.0 0.00 0.00 0.00 67 1016.4
20260503005734 42 288 0.0 0.0 0.00 0.00 0.00 64 1016.3
20260503004231 43 288 0.0 0.0 0.00 0.00 0.00 63 1016.4
20260503002728 44 288 0.0 0.0 0.00 0.00 0.00 59 1016.4
20260503001223 46 311 0.0 0.0 0.00 0.00 0.00 54 1016.1
20260502235721 46 296 0.0 1.0 0.00 0.00 0.00 50 1016.2
20260502234218 47 296 1.0 1.0 0.00 0.00 0.00 50 1016.1
20260502232718 47 209 1.0 1.0 0.00 0.00 0.00 50 1015.9
20260502231216 48 81 0.0 0.0 0.00 0.00 0.00 48 1016.2
20260502225714 48 199 1.0 2.0 0.00 0.00 0.00 46 1016.2
20260502224210 48 286 0.0 0.0 0.00 0.00 0.00 50 1016.3
20260502222709 47 348 0.0 1.0 0.00 0.00 0.00 51 1016.3
20260502221205 48 321 3.0 3.0 0.00 0.00 0.00 47 1016.2
20260502215700 48 311 0.0 2.0 0.00 0.00 0.00 48 1016.3
20260502214157 47 218 0.0 1.0 0.00 0.00 0.00 51 1016.3
20260502212656 48 292 1.0 2.0 0.00 0.00 0.00 48 1016.1
20260502211153 49 256 0.0 2.0 0.00 0.00 0.00 51 1016.1
20260502205650 48 286 2.0 3.0 0.00 0.00 0.00 52 1016.1
20260502204147 49 72 0.0 0.0 0.00 0.00 0.00 50 1016.3
20260502202642 49 303 2.0 2.0 0.00 0.00 0.00 51 1016.3
20260502201140 49 306 1.0 2.0 0.00 0.00 0.00 52 1016.3
20260502195637 48 308 0.0 2.0 0.00 0.00 0.00 50 1016.5
20260502194132 48 100 0.0 3.0 0.00 0.00 0.00 50 1016.7
20260502192633 49 282 2.0 3.0 0.00 0.00 0.00 48 1016.9
20260502191131 49 303 2.0 3.0 0.00 0.00 0.00 49 1016.7
20260502185626 48 297 2.0 3.0 0.00 0.00 0.00 50 1017.0
20260502184127 48 278 1.0 1.0 0.00 0.00 0.00 49 1017.0
20260502182627 49 249 2.0 3.0 0.00 0.00 0.00 48 1017.1
20260502181124 49 297 0.0 2.0 0.00 0.00 0.00 48 1017.1